Temp
54 54 53 53 53 53 53 43 37 44 45 36 38 34 33 36 32 34 32 31 31 30 27 25 24 23 25 31 27 19 20 7 4 5 3 7 3 1 0 -6 -9 -7 -9 -2
54 53 53 53 53 52 43 39 39 43 42 33 34 33 33 34 31 32 31 31 31 31 27 21 26 26 30 29 25 18 21 9 2 3 1 11 2 1 -2 -6 -7 -11 -11 -2
53 53 52 52 52 52 44 39 33 37 37 38 33 31 32 30 32 32 33 32 31 28 26 29 21 26 27 28 26 30 25 16 12 6 9 14 5 6 -0 -3 -8 -8 -2 2
53 53 52 51 52 51 43 41 34 32 32 34 33 32 32 31 29 31 32 30 30 28 22 25 24 26 26 26 28 23 20 5 14 14 18 19 17 15 4 -2 -4 -3 -4 -3
53 52 51 51 51 51 42 35 33 34 33 33 31 34 31 30 31 29 28 27 32 30 23 23 16 21 24 21 22 20 21 6 15 12 21 20 17 20 15 6 -3 2 5 4
53 52 51 51 50 49 42 40 39 34 36 33 28 32 33 32 31 33 33 31 30 29 29 28 26 26 26 22 21 18 16 10 10 6 19 17 11 15 18 11 6 3 -1 5
53 52 51 50 49 47 41 39 38 32 29 31 31 34 33 33 33 29 32 31 30 28 31 28 25 24 25 23 22 25 15 10 11 5 11 -0 16 20 20 19 17 14 14 15
52 52 50 50 49 47 41 40 36 32 26 32 33 34 33 34 33 29 31 32 31 34 27 19 16 17 18 20 21 18 18 9 2 -1 2 14 18 18 12 11 14 21 19 21
52 51 50 50 49 46 42 40 38 34 27 29 32 31 32 27 29 28 29 29 33 28 26 22 13 15 16 13 13 18 20 12 4 6 -2 5 13 19 22 19 7 23 24 22
52 51 49 50 49 46 42 38 38 33 28 33 31 26 29 31 27 26 25 24 25 29 22 20 18 17 18 12 11 6 8 7 1 5 5 11 21 19 21 7 15 25 24 23
53 51 49 49 49 47 42 38 38 33 29 32 33 33 25 26 27 26 25 22 21 20 18 20 22 17 15 12 17 13 10 6 5 9 4 3 20 16 10 18 18 23 23 22
52 51 49 50 48 48 45 38 41 39 29 30 34 35 35 32 30 30 24 24 22 24 21 22 21 20 14 13 12 17 9 15 13 13 14 16 20 13 15 10 12 16 14 18
52 50 50 49 49 48 45 39 37 34 28 29 27 27 33 35 34 35 25 26 23 22 21 21 20 15 19 11 14 16 13 10 9 11 16 18 23 20 15 13 13 11 13 12
52 50 50 49 49 49 46 38 38 36 33 22 26 33 28 33 33 32 31 25 23 21 21 19 18 18 22 15 17 14 15 14 8 10 19 21 21 21 16 16 13 10 9 10
51 50 49 49 49 49 43 39 38 38 31 24 26 28 26 29 30 29 29 26 23 20 16 17 15 20 17 17 11 11 14 12 14 15 16 16 13 8 8 8 8 6 5 6
49 48 48 48 48 44 38 32 34 36 35 27 20 25 22 23 24 26 26 25 23 24 21 19 19 15 14 10 13 20 19 14 19 18 10 9 8 9 8 7 6 4 4 7
48 47 47 47 46 39 35 32 35 40 36 27 21 24 24 25 26 24 22 22 22 22 21 18 19 15 17 13 9 19 20 22 21 17 12 18 14 12 3 3 1 4 3 6
48 47 47 46 46 41 35 36 41 37 30 28 15 19 18 24 17 18 24 20 20 20 18 19 17 15 16 10 18 20 19 18 20 19 16 20 11 8 3 -2 -1 1 6 9
46 45 44 39 36 32 33 40 40 33 29 20 18 14 15 21 19 19 19 22 15 18 14 17 17 15 11 16 18 20 22 20 20 19 17 14 12 14 10 7 5 6 8 8
45 40 34 31 33 40 38 30 25 23 24 24 15 23 14 16 17 17 16 14 14 6 12 17 11 11 20 22 24 24 23 23 21 17 17 13 12 15 15 15 16 14 14 14
37 33 31 32 39 32 28 21 16 18 11 18 18 16 14 20 11 15 18 12 12 2 8 7 11 12 19 23 22 24 26 26 24 24 25 24 21 20 21 22 22 20 18 18
36 33 33 31 28 25 18 16 18 13 14 21 17 17 17 14 15 14 10 10 8 0 9 4 5 17 23 24 24 24 25 25 24 25 25 25 24 23 22 21 21 21 22 20
33 31 28 24 22 11 12 13 16 17 19 18 16 15 18 14 15 11 11 4 5 6 -3 2 14 23 23 24 24 27 28 28 28 27 27 27 26 25 22 20 20 20 18 17
29 28 20 19 13 15 18 18 19 23 23 23 21 20 18 21 15 15 13 13 8 1 -4 10 19 25 25 26 25 25 28 30 30 30 28 25 24 22 21 20 18 15 12 15
26 28 16 18 23 20 20 20 22 25 24 22 20 20 19 18 14 16 13 6 0 5 11 23 24 24 25 27 30 30 29 29 28 28 26 25 22 20 19 19 16 15 16 15
28 27 24 24 17 20 18 19 25 26 23 23 22 19 16 15 15 11 5 6 6 12 18 21 24 24 25 27 31 30 29 28 27 26 22 21 20 18 16 17 15 15 15 14
24 23 27 26 23 22 26 27 27 24 21 17 20 17 16 17 14 9 15 12 17 20 22 26 25 25 29 30 30 29 28 26 24 21 21 18 16 15 14 11 13 13 14 13
MSLP
1028.68 1028.28 1027.89 1027.55 1026.91 1025.99 1024.54 1024.78 1024.93 1025.55 1025.85 1025.57 1024.37 1024.47 1024.70 1025.07 1025.37 1025.65 1025.59 1025.47 1025.12 1025.13 1025.46 1025.83 1026.23 1026.82 1027.35 1028.17 1029.14 1029.99 1030.89 1031.95 1032.00 1031.72 1032.55 1032.99 1033.62 1034.41 1035.64 1037.08 1037.59 1037.00 1035.82 1031.24
1028.44 1028.38 1028.03 1027.75 1027.21 1026.70 1026.44 1025.66 1025.31 1025.54 1025.79 1025.20 1024.51 1024.88 1024.98 1025.18 1025.49 1025.59 1025.82 1025.67 1025.64 1025.75 1025.91 1026.27 1026.21 1026.81 1027.51 1028.21 1029.06 1029.70 1030.58 1031.52 1031.79 1031.56 1032.80 1032.44 1033.03 1033.93 1035.11 1036.54 1037.12 1036.82 1035.77 1030.41
1028.13 1028.03 1028.09 1027.82 1027.33 1026.89 1026.83 1026.19 1025.76 1025.54 1025.49 1024.94 1024.80 1024.55 1024.60 1025.14 1025.64 1025.78 1025.89 1025.92 1026.02 1026.19 1026.21 1026.38 1026.63 1027.03 1027.79 1028.33 1029.11 1029.71 1030.52 1030.87 1030.85 1030.62 1029.51 1029.81 1031.18 1032.60 1034.16 1035.45 1036.76 1035.29 1033.34 1029.90
1028.17 1027.77 1027.84 1027.80 1027.38 1026.92 1027.00 1026.28 1026.53 1026.74 1025.73 1025.14 1024.97 1024.89 1024.49 1024.80 1025.44 1025.91 1026.07 1026.11 1026.08 1026.15 1026.33 1026.39 1026.77 1027.12 1027.80 1028.58 1029.08 1029.83 1030.60 1030.61 1030.01 1029.12 1028.11 1028.06 1028.51 1029.76 1031.71 1033.31 1033.32 1033.70 1031.29 1030.24
1028.25 1027.91 1027.65 1027.60 1027.44 1026.81 1026.85 1026.98 1027.16 1026.74 1026.07 1025.62 1025.27 1024.78 1024.28 1024.44 1024.81 1025.40 1025.73 1026.16 1025.75 1026.19 1026.42 1026.26 1026.81 1027.33 1027.60 1028.19 1029.35 1029.91 1030.35 1030.50 1029.66 1027.85 1026.42 1026.35 1026.49 1027.00 1028.32 1030.08 1031.15 1031.30 1030.39 1029.28
1028.28 1028.05 1027.89 1027.47 1027.61 1026.99 1027.17 1027.38 1027.54 1027.40 1026.05 1025.63 1025.62 1024.67 1024.21 1024.25 1024.52 1024.84 1025.05 1025.53 1026.05 1026.26 1026.36 1026.56 1026.85 1027.21 1027.51 1028.05 1028.79 1029.73 1030.41 1030.75 1030.34 1028.10 1026.35 1025.77 1024.72 1023.79 1025.10 1026.44 1027.23 1028.01 1028.31 1026.54
1028.11 1028.03 1027.97 1027.79 1027.89 1027.77 1028.07 1028.04 1027.92 1027.78 1026.62 1025.99 1025.55 1024.92 1024.89 1024.73 1024.81 1025.22 1025.52 1025.78 1026.22 1026.81 1026.91 1027.05 1027.21 1027.52 1027.82 1028.19 1028.74 1029.26 1030.14 1031.09 1031.12 1029.21 1027.12 1025.14 1022.67 1022.47 1023.02 1023.87 1024.27 1024.93 1024.78 1024.29
1027.85 1027.86 1027.84 1027.88 1027.93 1027.95 1027.99 1028.28 1028.42 1028.24 1027.23 1025.95 1025.40 1025.01 1024.87 1024.89 1025.10 1025.50 1025.78 1026.25 1026.66 1026.86 1027.13 1027.26 1027.24 1027.49 1028.03 1028.35 1029.04 1029.67 1030.47 1031.28 1031.48 1030.54 1028.75 1024.57 1022.08 1022.41 1022.76 1023.21 1022.51 1022.16 1022.70 1022.62
1027.34 1027.59 1027.71 1027.79 1027.76 1027.94 1028.09 1028.40 1028.61 1028.61 1028.13 1025.90 1025.47 1025.38 1025.28 1025.43 1025.42 1025.79 1026.32 1027.07 1027.11 1027.30 1027.12 1027.15 1027.25 1026.81 1026.96 1028.02 1029.34 1030.26 1030.87 1031.49 1032.10 1031.08 1029.48 1025.58 1022.17 1022.20 1022.50 1022.85 1022.48 1020.85 1021.12 1021.53
1026.75 1027.13 1027.40 1027.68 1027.79 1027.89 1028.13 1028.46 1028.65 1028.87 1028.34 1025.97 1025.69 1025.71 1025.79 1025.68 1025.98 1026.28 1026.64 1027.23 1027.58 1027.46 1027.07 1026.98 1026.54 1026.06 1026.34 1027.16 1028.15 1029.44 1030.74 1031.50 1031.32 1030.60 1028.89 1024.57 1021.81 1022.25 1022.83 1022.92 1021.51 1020.53 1020.78 1021.08
1026.16 1026.52 1027.04 1027.41 1027.71 1027.83 1028.16 1028.44 1028.50 1028.78 1028.35 1026.28 1025.66 1025.72 1025.78 1026.07 1026.21 1026.35 1026.97 1027.59 1027.66 1027.75 1027.36 1026.65 1025.67 1025.90 1026.06 1026.49 1026.19 1027.01 1028.24 1029.41 1029.39 1028.98 1027.70 1024.25 1022.12 1023.22 1022.99 1021.38 1020.83 1020.81 1020.88 1021.05
1025.76 1025.96 1026.51 1026.90 1027.40 1027.58 1027.96 1028.29 1028.33 1028.46 1028.79 1026.82 1025.91 1025.61 1025.50 1025.50 1025.70 1026.00 1026.63 1026.83 1026.71 1026.51 1026.78 1026.41 1025.96 1025.77 1025.89 1026.14 1026.07 1025.89 1026.69 1026.33 1026.53 1026.15 1023.25 1021.48 1021.52 1021.04 1021.12 1021.45 1021.55 1021.53 1021.54 1021.63
1024.80 1025.32 1026.09 1026.51 1026.92 1027.22 1027.74 1027.91 1028.29 1028.54 1028.13 1026.66 1026.19 1025.63 1025.54 1025.70 1025.65 1025.50 1026.28 1026.55 1026.62 1026.74 1026.89 1026.66 1026.54 1026.22 1025.25 1025.74 1025.46 1024.95 1025.19 1025.20 1025.53 1025.16 1020.94 1020.84 1020.98 1020.84 1021.22 1021.52 1022.09 1021.86 1022.05 1022.20
1024.02 1025.16 1025.85 1026.29 1026.67 1026.92 1027.28 1027.67 1027.78 1028.16 1028.24 1027.89 1025.78 1025.69 1025.88 1025.90 1025.92 1025.95 1025.97 1026.38 1027.02 1027.14 1027.15 1027.10 1026.91 1026.51 1025.39 1025.17 1024.98 1025.00 1024.13 1024.67 1024.48 1023.76 1021.59 1020.87 1020.44 1020.82 1020.91 1021.43 1021.86 1022.28 1022.63 1022.78
1025.29 1025.67 1026.10 1026.49 1026.50 1026.59 1027.02 1027.45 1027.68 1027.82 1028.36 1027.76 1026.01 1025.54 1026.16 1026.14 1026.01 1026.15 1026.39 1026.54 1026.95 1027.20 1027.47 1027.43 1027.13 1026.43 1026.37 1025.45 1025.50 1023.71 1022.51 1022.19 1022.79 1021.53 1020.80 1021.16 1021.21 1021.43 1021.50 1021.99 1022.31 1022.52 1022.92 1022.98
1026.34 1026.58 1026.44 1026.46 1026.65 1026.96 1027.34 1027.54 1027.87 1027.93 1028.04 1028.24 1026.87 1026.02 1026.08 1026.27 1026.19 1026.33 1026.58 1026.84 1026.97 1026.86 1026.79 1026.63 1026.38 1026.81 1026.85 1026.06 1024.15 1020.34 1020.09 1019.92 1019.84 1020.07 1020.54 1021.11 1021.25 1021.62 1021.80 1022.17 1022.29 1022.49 1022.78 1022.79
1026.82 1026.81 1026.87 1026.76 1026.73 1027.13 1027.56 1027.72 1027.62 1027.72 1028.01 1028.37 1027.18 1025.44 1026.00 1026.19 1026.39 1026.62 1026.80 1027.06 1027.06 1027.02 1026.80 1026.43 1026.30 1026.66 1026.58 1025.58 1022.75 1018.83 1018.76 1019.02 1019.31 1019.62 1020.50 1020.61 1020.67 1021.10 1021.46 1021.88 1021.92 1022.00 1022.11 1022.25
1027.18 1026.86 1026.65 1026.38 1026.47 1026.95 1027.15 1027.36 1027.44 1027.92 1028.09 1028.01 1027.72 1025.83 1026.01 1026.19 1026.27 1026.44 1026.44 1026.76 1027.00 1026.87 1026.44 1026.29 1026.07 1026.53 1026.01 1023.94 1018.87 1018.67 1018.49 1018.72 1018.99 1019.00 1019.50 1019.51 1020.15 1020.76 1021.26 1021.43 1021.75 1021.77 1021.49 1021.35
1027.61 1027.31 1027.05 1027.01 1026.98 1027.15 1027.23 1027.21 1027.24 1027.71 1028.32 1027.59 1026.81 1026.42 1026.07 1026.49 1026.11 1026.38 1026.74 1026.65 1026.81 1026.88 1026.44 1025.87 1025.86 1024.68 1023.07 1018.71 1018.09 1017.55 1017.34 1017.80 1017.74 1018.07 1018.57 1019.13 1019.61 1019.43 1019.79 1020.31 1020.49 1020.66 1020.12 1020.20
1027.77 1027.50 1027.52 1027.38 1027.63 1027.44 1027.48 1027.37 1027.75 1028.12 1028.10 1028.03 1027.22 1026.17 1026.48 1026.79 1026.52 1026.39 1026.64 1026.86 1026.77 1026.83 1026.19 1025.88 1025.17 1021.85 1018.28 1017.32 1016.74 1016.74 1016.81 1017.07 1017.43 1017.82 1017.80 1017.82 1018.18 1018.17 1018.17 1018.34 1018.34 1018.44 1018.49 1018.67
1028.28 1028.31 1028.21 1028.10 1027.81 1027.78 1027.62 1027.54 1027.63 1027.59 1027.64 1027.42 1026.97 1026.59 1026.50 1026.26 1026.85 1026.38 1026.30 1026.40 1026.61 1027.02 1026.43 1025.92 1023.63 1020.40 1016.80 1015.55 1015.66 1015.77 1016.07 1016.24 1016.34 1016.39 1016.23 1016.35 1016.60 1016.68 1016.70 1016.70 1016.80 1016.92 1017.11 1017.32
1029.29 1029.46 1028.90 1028.46 1028.06 1027.71 1028.04 1027.48 1027.20 1027.43 1026.76 1026.35 1026.47 1026.41 1026.41 1026.50 1026.51 1026.55 1026.83 1026.67 1027.02 1026.77 1026.13 1025.51 1022.38 1017.56 1015.68 1015.34 1015.08 1014.99 1015.18 1015.05 1014.92 1014.93 1014.90 1014.89 1015.12 1015.30 1015.43 1015.59 1015.76 1015.96 1016.12 1016.29
1029.36 1029.39 1028.96 1028.78 1028.20 1027.85 1027.59 1027.26 1026.55 1026.44 1025.96 1026.06 1026.40 1026.43 1026.18 1026.38 1026.67 1026.43 1026.50 1026.62 1026.71 1026.28 1025.64 1023.04 1019.03 1016.17 1015.41 1015.12 1014.79 1014.46 1014.12 1014.06 1013.87 1013.63 1013.67 1013.80 1014.02 1014.24 1014.64 1014.88 1015.08 1015.32 1015.58 1015.90
1029.46 1029.20 1028.75 1028.42 1027.78 1027.21 1026.29 1026.26 1026.01 1025.68 1025.67 1025.76 1025.96 1025.65 1025.96 1025.36 1025.81 1025.24 1025.30 1025.50 1025.71 1025.07 1023.55 1019.94 1016.79 1015.11 1014.58 1014.27 1014.29 1014.19 1013.68 1013.35 1013.16 1012.80 1012.76 1013.03 1013.25 1013.61 1014.05 1014.43 1014.72 1015.08 1015.43 1015.90
1029.67 1029.17 1028.32 1026.79 1025.98 1025.93 1025.87 1025.66 1025.74 1025.40 1025.39 1025.56 1025.61 1025.21 1024.77 1024.35 1024.63 1024.10 1024.05 1024.40 1023.45 1021.85 1018.90 1016.67 1014.74 1014.17 1014.04 1013.71 1013.39 1013.40 1013.07 1012.81 1012.61 1012.33 1012.42 1012.57 1013.03 1013.48 1013.91 1014.34 1014.73 1015.10 1015.58 1016.06
1029.09 1028.25 1027.03 1026.17 1026.38 1025.58 1025.35 1025.09 1024.71 1024.42 1024.87 1024.92 1025.13 1024.13 1023.65 1022.53 1022.13 1022.33 1021.72 1021.31 1019.57 1017.19 1015.86 1014.27 1013.62 1013.18 1012.72 1012.39 1012.28 1012.36 1012.27 1012.26 1012.20 1012.13 1012.44 1012.83 1013.22 1013.67 1014.04 1014.45 1014.98 1015.35 1015.75 1016.27
1027.89 1026.65 1026.07 1026.08 1025.58 1025.03 1024.27 1023.84 1023.60 1024.06 1024.56 1024.44 1023.79 1022.95 1021.36 1020.48 1019.71 1019.66 1018.90 1018.08 1015.89 1014.60 1013.71 1013.11 1012.62 1012.30 1011.90 1011.59 1011.32 1011.55 1011.69 1011.79 1011.86 1012.24 1012.73 1013.18 1013.66 1014.07 1014.36 1014.86 1015.37 1015.72 1016.09 1016.56
Wind_Speed
14 16 18 20 22 26 8 3 2 2 2 2 2 0 2 2 3 0 1 2 2 1 2 3 3 2 3 5 3 2 4 0 6 5 2 1 2 1 4 5 7 4 5 10
11 15 16 19 20 20 5 4 2 2 2 3 1 2 1 2 2 3 3 2 1 3 1 2 4 2 5 6 3 1 4 3 6 5 6 1 3 4 3 4 3 7 4 10
8 11 15 17 19 19 4 3 4 1 2 0 3 1 2 2 0 1 1 0 1 2 3 5 3 3 4 4 3 2 2 4 7 6 7 4 3 7 5 6 3 4 10 11
8 8 11 15 18 18 2 1 2 2 4 2 4 1 1 2 2 2 4 4 7 5 2 5 5 6 4 6 4 4 2 5 6 11 17 16 17 12 13 10 7 6 8 6
8 7 9 13 18 20 1 3 3 2 4 3 4 3 3 2 2 6 4 5 4 8 5 5 4 3 4 2 5 4 4 6 7 8 11 5 12 10 10 16 5 12 14 19
7 6 8 11 14 14 3 1 1 1 4 0 2 2 3 1 2 5 1 7 2 7 7 3 3 4 3 2 6 7 5 1 4 7 7 14 11 9 14 7 6 9 7 13
7 4 5 7 8 9 2 2 2 1 4 2 4 2 1 4 5 3 1 2 3 2 3 2 2 3 2 4 5 4 2 3 3 7 9 2 7 4 2 11 6 13 8 9
8 4 1 3 4 6 2 1 2 2 4 2 7 6 4 5 3 3 3 1 4 5 2 2 2 2 3 5 0 3 1 1 4 1 3 12 2 3 4 6 9 9 14 13
10 7 4 3 3 4 1 2 1 1 2 4 1 3 1 2 3 2 3 2 2 1 2 2 3 4 2 4 5 1 4 4 2 1 3 6 4 5 4 6 5 6 7 7
12 10 8 6 4 5 0 2 0 1 3 4 3 4 2 2 1 2 3 4 3 3 2 3 4 4 1 4 5 6 4 3 6 6 6 11 4 8 5 5 5 6 6 7
12 13 9 8 6 5 1 2 3 1 3 6 6 4 5 2 2 2 3 2 1 1 2 3 4 2 4 1 4 8 9 8 5 4 4 12 9 5 7 6 1 3 4 5
18 15 12 10 8 6 5 1 2 2 2 6 0 4 2 3 3 3 3 2 3 4 2 2 3 2 2 1 5 2 3 9 6 11 9 3 11 6 7 3 5 3 3 3
14 17 12 11 10 7 7 1 3 2 2 5 1 5 3 2 4 2 4 2 1 1 1 1 1 5 2 4 7 4 5 4 4 4 7 11 15 13 5 7 7 5 4 4
12 14 12 10 10 9 8 3 3 0 3 4 4 2 2 3 1 2 2 4 2 3 1 1 3 2 2 4 2 4 5 7 6 8 18 16 13 11 5 7 4 3 3 6
12 9 6 6 9 10 4 1 2 1 1 4 6 4 4 1 3 5 4 4 4 2 1 2 4 3 1 1 1 6 8 9 8 11 6 5 5 3 2 1 5 6 5 4
9 3 1 0 4 8 1 2 1 1 1 2 5 3 3 1 2 4 4 2 1 1 3 3 2 1 2 3 6 8 11 5 7 6 3 4 6 7 5 5 6 5 5 6
6 3 3 3 7 3 2 2 2 6 2 2 6 4 3 4 4 2 2 1 2 2 2 3 2 2 4 4 8 5 7 11 10 2 4 11 7 7 2 5 4 4 3 4
6 4 3 1 7 2 1 1 6 5 2 3 4 5 3 5 3 3 1 3 2 3 2 1 2 2 3 9 13 8 5 3 7 10 10 13 1 1 5 4 2 4 8 6
6 3 1 1 2 1 1 1 2 0 2 3 3 2 3 2 0 2 1 1 3 1 3 3 2 4 11 14 8 10 8 8 4 1 6 7 10 13 8 7 7 9 11 6
13 4 2 2 2 3 2 1 2 2 2 3 3 3 3 0 1 3 2 2 3 3 3 3 4 8 15 14 14 11 4 4 4 3 7 4 7 10 9 10 9 10 8 6
3 3 2 2 3 2 1 2 1 2 3 3 4 2 2 1 2 2 1 2 2 2 1 2 4 7 6 6 8 9 9 9 11 13 14 12 8 8 7 6 6 7 8 8
4 4 3 2 2 1 1 3 0 2 4 1 2 2 1 2 1 1 2 2 2 5 2 1 5 7 6 3 2 4 7 8 11 12 14 13 11 10 8 6 6 6 6 6
1 2 3 2 1 3 2 3 2 3 2 2 1 4 2 1 2 2 1 2 5 1 1 6 8 6 5 4 3 6 6 9 11 12 9 10 11 6 6 6 5 6 4 5
2 3 7 4 4 5 4 2 2 2 2 1 3 3 3 2 3 3 4 2 0 2 3 8 4 5 4 2 3 3 7 10 12 11 9 10 10 7 5 6 4 3 4 5
3 3 7 6 3 2 4 2 2 3 3 0 2 4 2 4 4 4 1 1 5 7 7 4 4 4 4 4 6 9 10 10 11 9 8 5 4 4 4 4 4 4 5 6
4 7 6 4 1 5 1 4 7 4 3 2 2 5 3 7 5 4 8 3 8 6 5 5 2 4 7 7 8 10 9 8 10 6 3 3 3 3 3 4 4 4 6 6
5 6 5 7 6 9 9 7 6 3 4 3 4 6 11 1 4 5 5 7 5 4 4 4 6 8 10 9 7 7 8 8 5 3 3 2 3 4 4 5 4 5 5 6
Wind_Direction
344 349 353 350 349 350 348 302 295 116 282 267 195 279 94 160 156 325 207 287 333 328 35 287 252 264 163 129 142 269 106 198 273 234 266 359 70 189 131 122 286 236 180 273
348 347 354 350 350 2 323 324 323 171 249 314 122 91 221 287 172 198 187 230 289 48 267 291 221 181 90 136 206 351 129 224 302 309 346 283 211 191 144 103 75 229 134 267
346 358 351 351 347 355 328 310 335 160 230 183 314 353 202 210 56 261 170 40 71 134 227 212 282 245 140 165 213 128 113 265 216 227 233 328 193 164 177 143 153 222 231 278
334 3 355 351 346 348 311 355 45 126 318 25 327 147 177 182 241 246 197 210 224 190 255 198 217 217 178 182 211 176 235 256 246 261 275 278 268 249 177 192 204 174 253 292
323 353 0 359 348 342 259 1 4 320 277 335 287 200 232 239 153 164 201 231 172 212 207 194 219 80 192 252 148 205 165 278 314 281 263 221 266 250 196 205 214 260 264 278
303 346 357 13 3 350 344 90 172 322 272 16 341 249 296 299 142 198 58 198 242 225 239 26 36 346 282 222 174 196 187 304 333 268 340 307 281 249 206 199 171 162 186 230
281 318 353 11 30 35 294 43 299 285 280 176 229 298 333 284 242 275 128 198 204 107 105 105 103 95 334 280 259 232 193 157 251 281 313 311 228 142 83 208 204 205 258 263
260 260 284 345 53 34 6 41 306 295 274 291 297 292 251 272 234 250 231 147 57 148 206 327 295 180 194 192 209 188 256 100 292 263 283 281 286 180 153 156 275 207 221 249
238 243 226 242 111 83 298 88 345 278 310 242 359 286 331 273 226 191 136 107 16 271 247 216 252 256 153 187 166 211 242 101 138 283 270 261 217 147 78 84 284 206 199 237
229 223 215 218 163 128 50 110 79 291 262 263 176 215 221 138 336 278 127 160 180 281 200 226 227 254 54 209 191 167 172 197 213 226 259 281 192 143 129 70 241 181 193 222
296 213 209 203 188 158 198 123 172 178 256 269 199 201 175 141 205 223 147 65 256 140 228 235 236 205 212 138 193 176 173 170 203 201 240 269 135 81 164 206 31 155 194 227
303 204 200 199 190 183 185 220 181 163 225 264 278 258 269 186 164 139 179 271 163 199 209 269 328 260 141 186 267 7 258 196 191 190 225 214 197 196 219 155 166 228 170 251
293 185 189 190 196 193 187 316 124 201 265 279 303 222 172 142 206 173 170 204 120 67 96 333 292 245 91 204 230 208 254 145 212 38 282 237 224 239 208 188 207 212 210 202
174 169 177 196 193 205 177 194 155 174 275 274 274 124 198 56 145 212 68 121 68 96 57 198 235 237 98 254 246 224 198 136 190 264 278 283 267 249 232 227 214 217 211 202
142 149 169 200 221 221 182 130 190 262 207 288 294 149 72 119 202 168 158 148 145 157 116 205 232 251 70 240 17 239 183 194 180 225 223 188 247 278 323 147 226 230 195 252
84 100 170 297 306 130 97 267 54 186 173 300 292 105 127 262 186 153 171 123 285 231 184 203 236 121 154 262 253 241 205 207 183 239 172 206 243 251 216 216 230 227 204 215
57 29 16 322 169 139 197 278 137 159 125 244 286 240 112 158 138 159 144 62 206 226 232 223 229 184 189 255 247 246 205 216 234 220 68 287 201 246 213 199 234 295 246 230
4 347 324 343 157 26 333 137 155 131 204 204 260 266 189 183 180 180 156 166 184 209 255 156 216 120 221 255 245 266 244 218 256 237 204 242 217 265 243 204 168 246 251 238
16 72 344 57 69 177 152 156 227 190 283 256 214 245 297 181 63 72 160 293 212 97 244 210 154 203 224 229 234 236 222 203 232 150 218 236 240 264 258 212 221 237 260 232
313 317 339 262 28 340 275 161 192 178 259 277 269 310 308 230 161 196 153 194 249 238 211 111 227 256 264 258 248 254 252 235 178 305 287 232 249 242 246 225 225 219 237 233
0 336 287 29 334 294 259 290 165 177 268 215 235 283 275 204 193 243 197 193 178 268 222 206 255 262 245 222 228 247 241 233 232 235 254 259 253 263 258 251 229 220 220 226
290 298 304 278 258 213 2 249 239 193 250 231 254 281 267 308 0 304 234 240 90 246 169 277 260 255 265 305 256 234 227 230 246 233 245 248 241 239 239 241 243 242 243 207
326 260 270 321 287 326 189 288 266 276 212 195 306 301 253 308 263 275 201 222 225 41 67 236 238 288 296 264 259 274 251 244 251 257 238 246 255 226 220 233 233 241 230 191
312 307 289 206 241 247 211 220 243 277 289 270 231 231 224 184 217 206 242 116 76 257 253 237 248 233 241 235 229 248 275 291 285 273 258 244 238 219 211 222 213 192 173 177
270 261 251 237 249 283 246 202 305 215 233 216 286 258 209 204 242 212 110 187 247 212 230 224 226 214 219 242 265 273 277 279 284 283 267 228 187 202 212 210 182 159 159 149
239 233 261 261 19 279 242 226 259 191 170 129 239 266 241 235 198 185 221 201 228 240 220 240 222 227 233 241 265 262 261 275 281 268 195 202 188 195 191 148 150 158 149 143
232 238 234 254 261 261 271 268 272 117 137 235 201 245 225 269 191 223 201 218 240 243 257 238 232 236 253 255 253 247 258 272 251 164 165 135 107 120 128 139 145 135 125 125